Regional Weather Roundup
Issued by NWS

Home | Current Version | Previous Version | Graphics & Text | Print | Product List | Glossary On
Versions: 1 2 3 4 5 6 7 8 9 10 11 12 13 14 15 16 17 18 19 20 21 22 23 24 25 26 27 28 29 30 31 32 33 34 35 36 37 38 39 40 41 42 43 44 45 46 47 48 49 50
000
ASUS44 KMEG 231500
RWRTN
TENNESSEE HOURLY STATE WEATHER ROUNDUP
NATIONAL WEATHER SERVICE MEMPHIS TN
1000 AM CDT SAT JUL 23 2016

TNZ002-004-019-021-049-052-054-088>092-231600-
WEST TENNESSEE

CITY           SKY/WX    TMP DP  RH WIND       PRES   REMARKS
MEMPHIS INTL   CLOUDY    80  72  76 S12       30.01R
NWS MEMPHIS      N/A     76 N/A N/A MISG        N/A
JACKSON        CLOUDY    83  75  77 S6        30.01F HX  90
DYERSBURG      PTSUNNY   81  73  78 MISG      30.01S
UNION CITY     SUNNY     82  75  78 CALM      30.00S
PARIS          SUNNY     82  73  74 S5        30.02F
LEXINGTON      SUNNY     84  75  74 CALM      30.01S HX  92
$$

TNZ008-025-027-028-033-062-065-066-231600-
NORTH MIDDLE TENNESSEE

CITY           SKY/WX    TMP DP  RH WIND       PRES   REMARKS
NASHVILLE      CLOUDY    85  75  72 CALM      30.03S HX  93
CLARKSVILLE    PTSUNNY   84  73  69 E3        30.02S HX  90
COOKEVILLE     SUNNY     86  79  79 CALM      30.04S HX  99
CROSSVILLE     MOSUNNY   82  70  66 CALM      30.10S
$$

TNZ061-075-076-078-094-096-097-231600-
SOUTH MIDDLE TENNESSEE

CITY           SKY/WX    TMP DP  RH WIND       PRES   REMARKS
TULLAHOMA      SUNNY     88  72  58 VRB6      30.06S HX  94
WINCHESTER     SUNNY     88  72  58 W3        30.04S HX  94
MCMINNVILLE    SUNNY     86  77  74 E5        30.05S HX  97
COLUMBIA       SUNNY     86  86 100 CALM      30.01S HX 112
SHELBYVILLE    SUNNY     88  77  70 W3        30.04S HX 100
$$

TNZ017-018-042-046-047-231600-
NORTHEAST TENNESSEE

CITY           SKY/WX    TMP DP  RH WIND       PRES   REMARKS
TRI CITIES     PTSUNNY   86  68  54 W5        30.08F
$$

TNZ012-013-036-069-073-074-231600-
CENTRAL EAST TENNESSEE

CITY           SKY/WX    TMP DP  RH WIND       PRES   REMARKS
KNOXVILLE      PTSUNNY   86  70  58 W3        30.04S HX  90
OAK RIDGE      MOSUNNY   88  72  58 E5        30.05F HX  94
GATLINBURG       N/A     86  68  54 CALM      30.05S
$$

TNZ083-085-099-231600-
SOUTHEAST TENNESSEE

CITY           SKY/WX    TMP DP  RH WIND       PRES   REMARKS
CHATTANOOGA    PTSUNNY   86  72  62 CALM      30.04S HX  92
$$

SKY/WX REPORTED AS FAIR MEANS FEW OR NO CLOUDS BELOW
12 THOUSAND FEET.





USA.gov is the U.S. government's official web portal to all federal, state and local government web resources and services.